#timestamp,LO_Frequency,Hit,StdDev 
1620932415.5,286046997.7,N
1620932435.4,286046995.0,N
1620932455.2,286046996.6,N
1620932475.0,286046999.4,N
1620932475.9,286046999.4,N
1620932495.8,286046998.2,N
1620932515.6,286046998.1,N
1620932535.4,286047001.2,N
1620932555.3,286046999.9,N
1620932575.1,286047001.2,N
1620932595.8,286047000.5,N
1620932615.7,286046999.5,N
1620932635.5,286046998.1,N
1620932655.3,286047000.9,N
1620932675.2,286046999.8,N
1620932695.0,286047002.8,N
1620932695.9,286047002.8,N
1620932715.8,286047003.9,N
1620932735.6,286047001.8,N
1620932755.4,286047004.0,N
1620932775.3,286047003.2,N
1620932795.1,286047003.2,N
1620932796.0,286047003.2,N
1620932815.8,286047006.0,N
1620932835.7,286047003.3,N
1620932855.5,286047003.1,N
1620932875.3,286047003.7,N
1620932895.2,286047001.3,N
1620932915.9,286047001.7,N
1620932935.7,286047001.9,N
1620932955.6,286047001.5,N
1620932975.4,286047002.6,N
1620932995.2,286047001.9,N
1620933015.1,286047002.5,N
1620933016.0,286047002.5,N
1620933035.8,286047000.1,N
1620933055.6,286046998.1,N
1620933075.5,286046999.9,N
1620933095.3,286046999.7,N
1620933115.1,286047001.0,N
1620933135.9,286047000.0,N
1620933155.7,286047000.0,N
1620933175.5,286047000.9,N
1620933195.4,286047000.3,N
1620933215.2,286046998.8,N
1620933235.0,286046999.2,N
1620933235.9,286046999.2,N
1620933255.8,286046996.9,N
1620933275.6,286046999.1,N
1620933295.4,286046998.3,N
1620933315.3,286046997.0,N
1620933335.1,286046995.2,N
1620933336.0,286046995.2,N
1620933355.8,286046996.1,N
1620933375.7,286046993.5,N
1620933395.5,286046994.8,N
1620933415.3,286046994.7,N
1620933435.2,286046994.5,N
1620933455.9,286046994.7,N
1620933475.7,286046995.8,N
1620933495.6,286046995.2,N
1620933515.4,286046994.9,N
1620933535.2,286046997.7,N
1620933555.1,286046996.9,N
1620933556.0,286046996.9,N
1620933575.8,286046995.0,N
1620933595.6,286046995.3,N
1620933615.5,286046995.3,N
1620933635.3,286046998.0,N
1620933655.1,286046997.3,N
1620933675.9,286046994.9,N
1620933695.7,286046999.2,N
1620933715.5,286046997.4,N
1620933735.4,286046997.5,N
1620933755.2,286046997.8,N
